This demonstration page uses our WeatherBlox Daily Observations layout. Learn more.

Left ArrowRight Arrow

Hourly Observations for February 6, 2019

Temp ( °F °C ) Dew Point ( °F °C ) Humidity (%) Winds ( mph kmh ) Pressure ( in mb ) Visibility ( mi km ) Precip ( " mm )
12:00 am 00:00 Cloudy with Heavy Rain 42 5.6 40 4.4 92 92 N N/A 30.05 1018 2 3.21868 0.04 1.016
12:07 am 00:07 Cloudy with Rain 42 5.6 40 4.4 92 92 E 5 7 30.05 1018 2 3.21868 0.06 1.524
12:30 am 00:30 Cloudy with Rain 42 5.6 41 5 96 96 E 6 9 30.03 1017 3 4.82802 0.11 2.794
12:41 am 00:41 Cloudy with Light Rain 43 6.1 41 5 93 93 E 5 7 30.03 1017 4 6.43736 0.13 3.302
12:53 am 00:53 Cloudy with Light Rain 43 6.1 41 5 93 93 N N/A 30.01 1016 4 6.43736 0.14 3.556
1:00 am 01:00 Cloudy with Rain 42 5.6 41 5 96 96 ESE 6 9 30 1016 2.5 4.02335 0.02 0.508
1:11 am 01:11 Cloudy with Light Rain 43 6.1 41 5 93 93 N N/A 30.01 1016 3 4.82802 0.04 1.016
1:29 am 01:29 Cloudy with Light Rain 44 6.7 42 5.6 93 93 N 5 7 30 1016 6 9.65604 0.04 1.016
1:53 am 01:53 Cloudy 44 6.7 42 5.6 93 93 NE 6 9 29.97 1015 7 11.26538 0.05 1.27
2:26 am 02:26 Cloudy with Light Rain 43 6.1 42 5.6 97 97 N N/A 29.98 1015 4 6.43736 N/A
2:53 am 02:53 Cloudy with Heavy Rain 44 6.7 42 5.6 93 93 NE 7 11 29.94 1014 2.5 4.02335 0.04 1.016
2:57 am 02:57 Cloudy with Light Rain 44 6.7 43 6.1 96 96 N N/A 29.96 1014 1.75 2.816345 N/A
3:05 am 03:05 Cloudy with Light Rain 45 7.2 43 6.1 93 93 ESE 3 6 29.96 1014 3 4.82802 N/A
3:23 am 03:23 Cloudy with Light Rain 46 7.8 45 7.2 96 96 NNE 3 6 29.94 1014 4 6.43736 0.02 0.508
3:37 am 03:37 Cloudy with Light Rain 47 8.3 45 7.2 93 93 N N/A 29.94 1014 2 3.21868 0.04 1.016
3:46 am 03:46 Cloudy with Light Rain 48 8.9 46 7.8 93 93 N N/A 29.94 1014 4 6.43736 0.05 1.27
3:53 am 03:53 Cloudy with Mist and Fog 48 8.9 47 8.3 96 96 N N/A 29.93 1014 4 6.43736 0.05 1.27
4:10 am 04:10 Cloudy with Light Rain 48 8.9 46 7.8 93 93 N N/A 29.93 1014 2 3.21868 N/A
4:18 am 04:18 Cloudy with Light Rain 48 8.9 47 8.3 96 96 N N/A 29.93 1014 1.5 2.41401 0.01 0.254
4:29 am 04:29 Cloudy with Light Rain 47 8.3 46 7.8 97 97 N N/A 29.92 1013 0.75 1.207005 0.01 0.254
4:45 am 04:45 Cloudy with Light Rain 48 8.9 46 7.8 93 93 E 3 6 29.91 1013 1 1.60934 0.02 0.508
4:53 am 04:53 Cloudy with Mist and Fog 48 8.9 46 7.8 93 93 N N/A 29.9 1013 1.25 2.011675 0.02 0.508
5:30 am 05:30 Cloudy with Mist and Fog 49 9.4 48 8.9 97 97 E 3 6 29.9 1013 2 3.21868 N/A
5:44 am 05:44 Cloudy with Mist and Fog 50 10 48 8.9 93 93 E 3 6 29.9 1012 1.75 2.816345 N/A
5:53 am 05:53 Cloudy with Mist and Fog 50 10 48 8.9 93 93 E 6 9 29.88 1012 1.75 2.816345 N/A
6:14 am 06:14 Cloudy with Light Rain 50 10 49 9.4 96 96 E 5 7 29.89 1012 2.5 4.02335 N/A
6:16 am 06:16 Cloudy with Light Rain 50 10 49 9.4 96 96 E 6 9 29.89 1012 3 4.82802 N/A
6:33 am 06:33 Cloudy with Rain 49 9.4 47 8.3 93 93 NNE 7 11 29.9 1013 3 4.82802 0.04 1.016
6:39 am 06:39 Cloudy with Heavy Rain 49 9.4 48 8.9 97 97 N 12 19 29.9 1013 1.75 2.816345 0.11 2.794
6:53 am 06:53 Cloudy with Rain 50 10 49 9.4 96 96 NNW 12 19 29.91 1013 2 3.21868 0.27 6.858
6:55 am 06:55 Cloudy with Rain 50 10 49 9.4 96 96 N 10 17 29.91 1013 1.75 2.816345 0.03 0.762
7:02 am 07:02 Cloudy with Heavy Rain 50 10 49 9.4 96 96 NNE 6 9 29.91 1013 2 3.21868 0.07 1.778
7:14 am 07:14 Cloudy with Rain 50 10 49 9.4 96 96 N N/A 29.9 1012 2 3.21868 0.1 2.54
7:18 am 07:18 Cloudy with Rain 50 10 48 8.9 93 93 SSE 3 6 29.9 1012 1.5 2.41401 0.12 3.048
7:31 am 07:31 Cloudy with Light Rain 50 10 48 8.9 93 93 N N/A 29.9 1012 2 3.21868 0.14 3.556
7:39 am 07:39 Cloudy with Light Rain 50 10 49 9.4 96 96 SE 3 6 29.91 1013 5 8.0467 0.14 3.556
7:44 am 07:44 Cloudy with Light Rain 50 10 49 9.4 96 96 N N/A 29.9 1012 1.75 2.816345 0.14 3.556
7:51 am 07:51 Cloudy with Mist and Fog 48 9 48 9 100 100 ESE 6 9 29.89 1012 1 1.60934 0.14 3.556
7:53 am 07:53 Cloudy with Mist and Fog 49 9.4 48 8.9 97 97 ESE 5 7 29.88 1012 1 1.60934 0.15 3.81
8:03 am 08:03 Cloudy with Light Rain 49 9.4 48 8.9 97 97 SE 5 7 29.88 1012 0.5 0.80467 0.01 0.254
8:22 am 08:22 Cloudy with Light Rain 51 10.6 50 10 96 96 SE 5 7 29.88 1012 1.75 2.816345 0.09 2.286
8:26 am 08:26 Cloudy with Light Rain 50 10 49 9.4 96 96 SE 3 6 29.88 1012 1 1.60934 0.09 2.286
8:30 am 08:30 Cloudy with Rain 50 10 49 9.4 96 96 N N/A 29.88 1012 0.5 0.80467 0.1 2.54
8:39 am 08:39 Cloudy with Heavy Rain 51 10.6 50 10 96 96 E 6 9 29.87 1011 0.75 1.207005 0.17 4.318
8:53 am 08:53 Cloudy with Heavy Rain 51 10.6 50 10 96 96 N N/A 29.87 1012 0.5 0.80467 0.26 6.604
9:11 am 09:11 Cloudy with Heavy Rain 51 10.6 50 10 96 96 N N/A 29.88 1012 0.25 0.402335 0.16 4.064
9:36 am 09:36 Cloudy with Heavy Rain 52 11.1 51 10.6 97 97 N N/A 29.91 1013 0.25 0.402335 0.54 13.716
9:53 am 09:53 Cloudy with Heavy Rain 52 11.1 51 10.6 97 97 WNW 3 6 29.9 1013 0.5 0.80467 0.62 15.748
10:08 am 10:08 Cloudy with Rain 51 10.6 50 10 96 96 N N/A 29.89 1012 0.25 0.402335 0.07 1.778
10:53 am 10:53 Cloudy with Light Rain 52 11.1 51 10.6 97 97 N N/A 29.88 1012 0.25 0.402335 0.12 3.048
11:18 am 11:18 Cloudy with Light Rain 54 12.2 53 11.7 97 97 W 5 7 29.89 1012 0.5 0.80467 0.01 0.254
11:22 am 11:22 Cloudy with Light Rain 54 12.2 53 11.7 97 97 W 6 9 29.9 1013 1.25 2.011675 0.01 0.254
11:26 am 11:26 Cloudy with Light Rain 54 12.2 53 11.7 97 97 W 6 9 29.9 1013 3 4.82802 0.01 0.254
11:40 am 11:40 Cloudy with Light Rain 53 11.7 53 11.7 100 100 W 5 7 29.91 1013 2 3.21868 0.02 0.508
11:48 am 11:48 Cloudy with Rain 54 12 52 11 94 94 WNW 5 7 29.92 1013 1.5 2.41401 0.03 0.762
11:53 am 11:53 Cloudy with Rain 53 11.7 52 11.1 96 96 WNW 5 7 29.92 1013 1.25 2.011675 0.04 1.016
12:10 pm 12:10 Mostly Cloudy with Light Rain 53 11.7 53 11.7 100 100 N N/A 29.89 1012 0.25 0.402335 0.01 0.254
12:53 pm 12:53 Mostly Cloudy with Fog 55 12.8 54 12.2 96 96 W 3 6 29.88 1012 0.25 0.402335 0.01 0.254
1:02 pm 13:02 Cloudy with Mist and Fog 55 12.8 55 12.8 100 100 W 3 6 29.87 1012 1.75 2.816345 N/A
1:05 pm 13:05 Cloudy with Mist and Fog 56 13.3 55 12.8 97 97 W 5 7 29.87 1012 3 4.82802 0.01 0.254
1:53 pm 13:53 Cloudy 57 13.9 56 13.3 96 96 N N/A 29.87 1012 10 16.0934 0.01 0.254
2:02 pm 14:02 Cloudy 57 13.9 56 13.3 96 96 W 6 9 29.87 1011 10 16.0934 N/A
2:28 pm 14:28 Mostly Sunny 59 15 56 13.3 90 90 W 6 9 29.88 1012 10 16.0934 N/A
2:53 pm 14:53 Mostly Sunny 59 15 56 13.3 90 90 W 6 9 29.89 1012 10 16.0934 N/A
3:11 pm 15:11 Mostly Cloudy 59 15 57 13.9 93 93 VRB 3 6 29.88 1012 10 16.0934 N/A
3:35 pm 15:35 Mostly Cloudy 60 15.6 56 13.3 86 86 SW 3 6 29.89 1012 10 16.0934 N/A
3:42 pm 15:42 Mostly Cloudy 60 15.6 56 13.3 86 86 W 5 7 29.89 1012 10 16.0934 N/A
3:49 pm 15:49 Mostly Cloudy 61 16 55 13 83 83 WSW 6 9 29.88 1012 10 16.0934 N/A
3:53 pm 15:53 Partly Cloudy 59 15 56 13.3 90 90 WSW 5 7 29.89 1012 10 16.0934 N/A
4:22 pm 16:22 Mostly Cloudy 59 15 56 13.3 90 90 WSW 5 7 29.92 1013 10 16.0934 N/A
4:53 pm 16:53 Mostly Cloudy 59 15 55 12.8 87 87 N N/A 29.91 1013 10 16.0934 N/A
5:32 pm 17:32 Partly Cloudy 56 13.3 54 12.2 93 93 N N/A 29.92 1013 10 16.0934 N/A
5:53 pm 17:53 Sunny 54 12.2 52 11.1 93 93 N N/A 29.91 1013 10 16.0934 N/A
6:53 pm 18:53 Clear 53 11.7 51 10.6 93 93 N N/A 29.94 1014 9 14.48406 N/A
7:29 pm 19:29 Mostly Cloudy 52 11.1 50 10 93 93 N N/A 29.96 1014 10 16.0934 N/A
7:53 pm 19:53 Mostly Cloudy 55 12.8 53 11.7 93 93 NNE 5 7 29.96 1014 10 16.0934 N/A
8:23 pm 20:23 Partly Cloudy with Mist and Fog 51 10.6 50 10 96 96 N N/A 29.96 1014 6 9.65604 N/A
8:42 pm 20:42 Mostly Cloudy with Mist and Fog 51 10.6 50 10 96 96 N N/A 29.97 1015 2 3.21868 N/A
8:53 pm 20:53 Cloudy with Mist and Fog 51 10.6 50 10 96 96 N N/A 29.97 1015 2 3.21868 N/A
8:59 pm 20:59 Cloudy with Mist and Fog 51 10.6 50 10 96 96 N N/A 29.97 1015 3 4.82802 N/A
9:07 pm 21:07 Cloudy with Mist and Fog 53 11.7 51 10.6 93 93 NW 3 6 29.97 1015 6 9.65604 N/A
9:15 pm 21:15 Cloudy 52 11.1 51 10.6 97 97 NW 3 6 29.98 1015 7 11.26538 N/A
9:22 pm 21:22 Cloudy with Mist and Fog 52 11.1 50 10 93 93 N 5 7 29.98 1015 6 9.65604 N/A
9:37 pm 21:37 Cloudy with Mist and Fog 51 10.6 50 10 96 96 N N/A 29.98 1015 4 6.43736 N/A
9:53 pm 21:53 Cloudy with Mist and Fog 53 11.7 51 10.6 93 93 WNW 3 6 29.99 1016 6 9.65604 N/A
10:17 pm 22:17 Cloudy with Light Rain 52 11.1 50 10 93 93 N N/A 30 1016 4 6.43736 N/A
10:24 pm 22:24 Cloudy with Light Rain 51 10.6 50 10 96 96 N N/A 29.99 1015 1.75 2.816345 N/A
10:31 pm 22:31 Cloudy with Light Rain 50 10 49 9.4 96 96 N N/A 29.99 1016 1 1.60934 N/A
10:53 pm 22:53 Cloudy with Light Rain 49 9.4 48 8.9 97 97 N N/A 29.98 1015 1.75 2.816345 N/A
11:07 pm 23:07 Cloudy with Light Rain 49 9.4 48 8.9 97 97 N N/A 29.98 1015 1.25 2.011675 N/A
11:53 pm 23:53 Cloudy with Light Rain 49 9.4 48 8.9 97 97 N N/A 29.97 1015 0.75 1.207005 0.02 0.508

Powered by AerisWeather